Location: *
(33.8649°S, 62.1526°E)
Time: 11:28:44
(UTC+00:00)

Cosmos-2242 - Pass Details

Date: 17 January 2021
Orbit: 591 x 616 km, 82.5° (Epoch: 02 March)

Event Time Altitude Azimuth Distance (km) Brightness Sun altitude
Exits shadow 16:48:50 19° 347° (NNW) 1,451 4.7 -18.8°
Maximum altitude 16:51:53 76° 264° (W) 641 3.1 -19.2°
Drops below altitude 10° 16:56:20 10° 177° (S) 2,002 6.2 -19.9°
Sets 16:58:35 0° 175° (S) 2,918 7.1 -20.3°
